Cooperstown, ND

9:31 PM CST on February 21, 2018 (GMT -0600)
Cooperstown

Weather History for KS32 - January, 2014

Change the Weather History Date:

Monday, January 6, 2014

  Actual Average (KJMS) Record (KJMS)
Temperature  
Mean Temperature -16 °F -  
Max Temperature -7 °F 14 °F 47 °F (1990)
Min Temperature -25 °F -2 °F -36 °F (1909)
Degree Days  
Heating Degree Days 81    
Moisture  
Dew Point -24 °F    
Average Humidity 71    
Maximum Humidity 77    
Minimum Humidity 63    
Precipitation  
Precipitation 0.00 in - - ()
Sea Level Pressure  
Sea Level Pressure 30.21 in    
Wind  
Wind Speed 16 mph (WNW)    
Max Wind Speed 26 mph    
Max Gust Speed 31 mph    
Visibility 10 miles    
Events      
Averages and records for this station are not official NWS values.
T = Trace of Precipitation, MM = Missing Value Source: NWS Daily Summary

Daily Weather History Graph

Daily Weather History Graph

Search for Another Location

Airport or City:

Trip Planner

Search our weather history database for the weather conditions in past years. The results will help you decide how hot, cold, wet, or windy it might be!

Date:

Astronomy

Jan. 06, 2014 Rise Set
Actual Time 8:19 AM CST 4:57 PM CST
Civil Twilight 7:43 AM CST 5:33 PM CST
Nautical Twilight 7:05 AM CST 6:11 PM CST
Astronomical Twilight 6:28 AM CST 6:48 PM CST
Moon 11:08 AM CST (1/6) No Moon Set
Length of Visible Light 9h 49m
Length of Day
8h 38m
Waxing Crescent, 35% of the Moon is Illuminated
Jan 6
Waxing Crescent
Jan 7
First Quarter
Jan 15
Full
Jan 23
Last Quarter
Jan 30
New

Hourly Weather History & Observations

Time (CST) Temp. Windchill Dew Point Humidity Pressure Visibility Wind Dir Wind Speed Gust Speed Precip Events Conditions
12:15 AM -22.0 °F -47.5 °F -29.2 °F 69% 30.35 in 10.0 mi NW 15.0 mph 23.0 mph N/A   Scattered Clouds
12:35 AM -22.0 °F -48.4 °F -29.2 °F 69% 30.34 in 10.0 mi NW 16.1 mph - N/A   Partly Cloudy
12:55 AM -22.0 °F -48.4 °F -29.2 °F 69% 30.34 in 10.0 mi NW 16.1 mph - N/A   Clear
1:15 AM -22.0 °F -48.4 °F -29.2 °F 69% 30.34 in 10.0 mi NW 16.1 mph - N/A   Clear
1:35 AM -22.0 °F -49.1 °F -29.2 °F 69% 30.33 in 10.0 mi NW 17.3 mph - N/A   Mostly Cloudy
1:55 AM -22.0 °F -46.6 °F -29.2 °F 69% 30.33 in 10.0 mi NW 13.8 mph - N/A   Scattered Clouds
2:15 AM -22.0 °F -45.7 °F -29.2 °F 69% 30.33 in 10.0 mi NW 12.7 mph - N/A   Clear
2:35 AM -22.0 °F -47.5 °F -29.2 °F 69% 30.33 in 10.0 mi NW 15.0 mph 19.6 mph N/A   Clear
2:55 AM -23.8 °F -48.9 °F -31.0 °F 69% 30.34 in 10.0 mi NW 13.8 mph - N/A   Clear
3:15 AM -23.8 °F -46.9 °F -31.0 °F 69% 30.33 in 10.0 mi WNW 11.5 mph - N/A   Clear
3:35 AM -22.0 °F -45.7 °F -29.2 °F 69% 30.32 in 10.0 mi NW 12.7 mph - N/A   Clear
3:55 AM -23.8 °F -51.5 °F -31.0 °F 69% 30.32 in 10.0 mi NW 17.3 mph - N/A   Clear
4:15 AM -23.8 °F -51.5 °F -31.0 °F 69% 30.31 in 10.0 mi NW 17.3 mph 23.0 mph N/A   Clear
4:35 AM -23.8 °F -51.5 °F -31.0 °F 69% 30.30 in 10.0 mi NW 17.3 mph - N/A   Clear
4:55 AM -23.8 °F -51.5 °F -31.0 °F 69% 30.30 in 10.0 mi NW 17.3 mph 26.5 mph N/A   Clear
5:15 AM -23.8 °F -52.9 °F -31.0 °F 69% 30.30 in 10.0 mi NW 19.6 mph - N/A   Clear
5:35 AM -23.8 °F -52.2 °F -31.0 °F 69% 30.30 in 10.0 mi NW 18.4 mph - N/A   Clear
5:55 AM -23.8 °F -52.2 °F -31.0 °F 69% 30.30 in 10.0 mi NW 18.4 mph - N/A   Clear
6:15 AM -23.8 °F -51.5 °F -31.0 °F 69% 30.29 in 10.0 mi NW 17.3 mph - N/A   Clear
6:35 AM -25.6 °F -52.1 °F -31.0 °F 76% 30.29 in 10.0 mi WNW 15.0 mph - N/A   Unknown
6:55 AM -25.6 °F -51.2 °F -31.0 °F 76% 30.28 in 10.0 mi WNW 13.8 mph - N/A   Clear
7:15 AM -25.6 °F -50.2 °F -31.0 °F 76% 30.28 in 10.0 mi WNW 12.7 mph - N/A   Clear
7:35 AM -25.6 °F -51.2 °F -31.0 °F 76% 30.28 in 10.0 mi WNW 13.8 mph - N/A   Clear
7:55 AM -25.6 °F -53.8 °F -31.0 °F 76% 30.28 in 10.0 mi WNW 17.3 mph - N/A   Clear
8:15 AM -25.6 °F -51.2 °F -31.0 °F 76% 30.27 in 10.0 mi WNW 13.8 mph - N/A   Clear
8:35 AM -23.8 °F -50.7 °F -31.0 °F 69% 30.27 in 10.0 mi WNW 16.1 mph - N/A   Clear
8:55 AM -23.8 °F -52.2 °F -31.0 °F 69% 30.27 in 10.0 mi WNW 18.4 mph 23.0 mph N/A   Clear
9:15 AM -22.0 °F -49.9 °F -29.2 °F 69% 30.26 in 10.0 mi WNW 18.4 mph 25.3 mph N/A   Clear
9:35 AM -22.0 °F -51.3 °F -29.2 °F 69% 30.27 in 10.0 mi NW 20.7 mph 25.3 mph N/A   Clear
9:55 AM -22.0 °F -51.3 °F -29.2 °F 69% 30.26 in 10.0 mi NW 20.7 mph 26.5 mph N/A   Clear
10:15 AM -20.2 °F -48.2 °F -29.2 °F 63% 30.26 in 10.0 mi WNW 19.6 mph 25.3 mph N/A   Clear
10:35 AM -20.2 °F -47.5 °F -27.4 °F 69% 30.26 in 10.0 mi WNW 18.4 mph 25.3 mph N/A   Clear
10:55 AM -20.2 °F -47.5 °F -27.4 °F 69% 30.26 in 10.0 mi WNW 18.4 mph - N/A   Clear
11:15 AM -18.4 °F -47.1 °F -25.6 °F 70% 30.25 in 10.0 mi NW 21.9 mph 26.5 mph N/A   Clear
11:35 AM -18.4 °F -47.1 °F -25.6 °F 70% 30.24 in 10.0 mi NW 21.9 mph 28.8 mph N/A   Clear
11:55 AM -16.6 °F -45.9 °F -23.8 °F 70% 30.23 in 10.0 mi NW 24.2 mph - N/A   Clear
12:15 PM -16.6 °F -46.9 °F -23.8 °F 70% 30.22 in 10.0 mi WNW 26.5 mph 31.1 mph N/A   Clear
12:35 PM -16.6 °F -45.9 °F -22.0 °F 76% 30.22 in 10.0 mi NW 24.2 mph 31.1 mph N/A   Clear
12:55 PM -16.6 °F -45.3 °F -22.0 °F 76% 30.20 in 10.0 mi WNW 23.0 mph 26.5 mph N/A   Clear
1:15 PM -14.8 °F -41.2 °F -22.0 °F 70% 30.20 in 10.0 mi WNW 19.6 mph 26.5 mph N/A   Clear
1:35 PM -14.8 °F -40.5 °F -22.0 °F 70% 30.20 in 10.0 mi NW 18.4 mph 24.2 mph N/A   Clear
1:55 PM -13.0 °F -41.1 °F -20.2 °F 70% 30.19 in 10.0 mi WNW 24.2 mph - N/A   Mostly Cloudy
2:15 PM -13.0 °F -39.4 °F -20.2 °F 70% 30.18 in 10.0 mi NW 20.7 mph - N/A   Mostly Cloudy
2:35 PM -13.0 °F -40.6 °F -20.2 °F 70% 30.17 in 10.0 mi WNW 23.0 mph - N/A   Partly Cloudy
2:55 PM -13.0 °F -38.2 °F -20.2 °F 70% 30.17 in 10.0 mi WNW 18.4 mph - N/A   Clear
3:15 PM - - - N/A% 30.17 in 10.0 mi WNW 18.4 mph - N/A   Clear
3:35 PM -11.2 °F -35.2 °F -18.4 °F 70% 30.17 in 10.0 mi WNW 17.3 mph - N/A   Mostly Cloudy
3:55 PM -11.2 °F -35.2 °F -18.4 °F 70% 30.16 in 10.0 mi WNW 17.3 mph 20.7 mph N/A   Mostly Cloudy
4:15 PM - - - N/A% 30.16 in 10.0 mi WNW 16.1 mph - N/A   Partly Cloudy
4:35 PM -11.2 °F -35.8 °F -18.4 °F 70% 30.15 in 10.0 mi WNW 18.4 mph 23.0 mph N/A   Mostly Cloudy
4:55 PM -11.2 °F -34.4 °F -18.4 °F 70% 30.15 in 10.0 mi WNW 16.1 mph 23.0 mph N/A   Overcast
5:15 PM - - - N/A% 30.14 in 10.0 mi WNW 12.7 mph - N/A   Mostly Cloudy
5:35 PM -11.2 °F -32.9 °F -18.4 °F 70% 30.13 in 10.0 mi WNW 13.8 mph - N/A   Mostly Cloudy
5:55 PM -11.2 °F -33.7 °F -18.4 °F 70% 30.12 in 10.0 mi WNW 15.0 mph - N/A   Scattered Clouds
6:15 PM -11.2 °F -37.0 °F -18.4 °F 70% 30.11 in 10.0 mi WNW 20.7 mph 24.2 mph N/A   Partly Cloudy
6:35 PM -11.2 °F -34.4 °F -18.4 °F 70% 30.12 in 10.0 mi WNW 16.1 mph - N/A   Mostly Cloudy
6:55 PM -11.2 °F -35.2 °F -18.4 °F 70% 30.11 in 10.0 mi WNW 17.3 mph - N/A   Mostly Cloudy
7:15 PM -11.2 °F -32.9 °F -18.4 °F 70% 30.11 in 10.0 mi WNW 13.8 mph - N/A   Partly Cloudy
7:35 PM -11.2 °F -34.4 °F -16.6 °F 77% 30.10 in 10.0 mi WNW 16.1 mph 21.9 mph N/A   Clear
7:55 PM -9.4 °F -33.5 °F -16.6 °F 71% 30.11 in 10.0 mi WNW 18.4 mph - N/A   Clear
8:15 PM -9.4 °F -32.1 °F -16.6 °F 71% 30.09 in 10.0 mi WNW 16.1 mph - N/A   Clear
8:35 PM -9.4 °F -29.8 °F -16.6 °F 71% 30.09 in 10.0 mi WNW 12.7 mph 18.4 mph N/A   Clear
8:55 PM -9.4 °F -27.9 °F -16.6 °F 71% 30.08 in 10.0 mi West 10.4 mph - N/A   Clear
9:15 PM -9.4 °F -29.8 °F -14.8 °F 77% 30.09 in 10.0 mi WNW 12.7 mph - N/A   Clear
9:35 PM -7.6 °F -27.5 °F -14.8 °F 71% 30.08 in 10.0 mi West 12.7 mph - N/A   Clear
9:55 PM -7.6 °F -26.6 °F -14.8 °F 71% 30.06 in 10.0 mi WNW 11.5 mph - N/A   Clear
10:15 PM -7.6 °F -28.3 °F -13.0 °F 77% 30.05 in 10.0 mi West 13.8 mph - N/A   Clear
10:35 PM -7.6 °F -28.3 °F -13.0 °F 77% 30.03 in 10.0 mi West 13.8 mph - N/A   Clear
10:55 PM -7.6 °F -27.5 °F -14.8 °F 71% 30.02 in 10.0 mi WNW 12.7 mph - N/A   Clear
11:15 PM -7.6 °F -24.6 °F -13.0 °F 77% 30.01 in 10.0 mi WNW 9.2 mph - N/A   Clear
11:35 PM -7.6 °F -25.7 °F -13.0 °F 77% 30.02 in 10.0 mi WNW 10.4 mph - N/A   Clear
11:55 PM -7.6 °F -26.6 °F -13.0 °F 77% 30.00 in 10.0 mi WNW 11.5 mph - N/A   Clear